Stündliche Wetter Celestún

Heute, 25 Januar, Montag

Zeit Temperatur Niederschläge Wind Luftdruck Luftfeuchtigkeit
00:00 +26°C° 0 mm 5 m/S 758 mmHg 85%
01:00 +25°C° 0 mm 5 m/S 758 mmHg 87%
02:00 +25°C° 0 mm 5 m/S 758 mmHg 88%
03:00 +25°C° 0 mm 5 m/S 758 mmHg 90%
04:00 +25°C° 0 mm 5 m/S 758 mmHg 90%
05:00 +24°C° 0 mm 6 m/S 758 mmHg 90%
06:00 +24°C° 0 mm 6 m/S 758 mmHg 90%
07:00 +26°C° 0 mm 6 m/S 758 mmHg 85%
08:00 +26°C° 0 mm 6 m/S 759 mmHg 79%
09:00 +27°C° 0 mm 5 m/S 759 mmHg 74%
10:00 +29°C° 0 mm 5 m/S 758 mmHg 67%
11:00 +32°C° 0 mm 4 m/S 758 mmHg 60%
12:00 +33°C° 0 mm 4 m/S 758 mmHg 52%
13:00 +34°C° 0 mm 3 m/S 757 mmHg 50%
14:00 +35°C° 0 mm 3 m/S 756 mmHg 47%
15:00 +35°C° 0 mm 2 m/S 756 mmHg 45%
16:00 +34°C° 0 mm 2 m/S 756 mmHg 48%
17:00 +32°C° 0 mm 2 m/S 756 mmHg 52%
18:00 +30°C° 0 mm 2 m/S 756 mmHg 55%
19:00 +29°C° 0 mm 3 m/S 756 mmHg 58%
20:00 +28°C° 0 mm 4 m/S 757 mmHg 61%
21:00 +28°C° 0 mm 5 m/S 757 mmHg 64%
22:00 +27°C° 0 mm 5 m/S 757 mmHg 69%
23:00 +26°C° 0 mm 5 m/S 757 mmHg 74%

Morgen, 26 Januar, Dienstag

Zeit Temperatur Niederschläge Wind Luftdruck Luftfeuchtigkeit
00:00 +26°C° 0 mm 5 m/S 757 mmHg 78%
01:00 +24°C° 0 mm 6 m/S 757 mmHg 82%
02:00 +24°C° 0 mm 6 m/S 757 mmHg 86%
03:00 +23°C° 0 mm 6 m/S 757 mmHg 90%
04:00 +23°C° 0 mm 6 m/S 757 mmHg 90%
05:00 +23°C° 0 mm 6 m/S 757 mmHg 90%
06:00 +23°C° 0 mm 5 m/S 758 mmHg 89%
07:00 +25°C° 0 mm 5 m/S 758 mmHg 83%
08:00 +27°C° 0 mm 5 m/S 759 mmHg 77%
09:00 +28°C° 0 mm 5 m/S 759 mmHg 71%
10:00 +30°C° 0 mm 4 m/S 759 mmHg 64%
11:00 +33°C° 0 mm 3 m/S 758 mmHg 56%
12:00 +35°C° 0 mm 2 m/S 758 mmHg 48%
13:00 +35°C° 0 mm 2 m/S 757 mmHg 46%
14:00 +36°C° 0 mm 3 m/S 757 mmHg 45%
15:00 +36°C° 0 mm 3 m/S 756 mmHg 43%
16:00 +34°C° 0 mm 3 m/S 756 mmHg 51%
17:00 +31°C° 0 mm 3 m/S 756 mmHg 60%
18:00 +29°C° 0 mm 3 m/S 757 mmHg 68%
19:00 +29°C° 0 mm 3 m/S 757 mmHg 65%
20:00 +28°C° 0 mm 4 m/S 758 mmHg 63%
21:00 +28°C° 0 mm 4 m/S 758 mmHg 61%
22:00 +27°C° 0 mm 4 m/S 758 mmHg 68%
23:00 +26°C° 0 mm 5 m/S 758 mmHg 74%

übermorgen, 27 Januar, Mittwoch

Zeit Temperatur Niederschläge Wind Luftdruck Luftfeuchtigkeit
00:00 +25°C° 0 mm 5 m/S 758 mmHg 81%
01:00 +23°C° 0 mm 5 m/S 758 mmHg 83%
02:00 +23°C° 0 mm 5 m/S 758 mmHg 86%
03:00 +23°C° 0 mm 6 m/S 758 mmHg 89%
04:00 +23°C° 0 mm 6 m/S 759 mmHg 89%
05:00 +23°C° 0 mm 6 m/S 759 mmHg 90%
06:00 +23°C° 0 mm 6 m/S 759 mmHg 90%
07:00 +26°C° 0 mm 5 m/S 759 mmHg 83%
08:00 +27°C° 0 mm 5 m/S 760 mmHg 76%
09:00 +29°C° 0 mm 5 m/S 760 mmHg 69%
10:00 +32°C° 0 mm 4 m/S 760 mmHg 60%
11:00 +34°C° 0 mm 3 m/S 760 mmHg 51%
12:00 +36°C° 0 mm 2 m/S 760 mmHg 42%
13:00 +35°C° 0 mm 3 m/S 759 mmHg 44%
14:00 +35°C° 0 mm 4 m/S 759 mmHg 46%
15:00 +35°C° 0 mm 5 m/S 758 mmHg 48%
16:00 +32°C° 0 mm 5 m/S 759 mmHg 59%
17:00 +29°C° 0 mm 5 m/S 759 mmHg 70%
18:00 +27°C° 0 mm 6 m/S 760 mmHg 81%
19:00 +27°C° 0 mm 6 m/S 760 mmHg 83%
20:00 +26°C° 0 mm 6 m/S 761 mmHg 85%
21:00 +26°C° 0 mm 5 m/S 762 mmHg 87%
22:00 +26°C° 0.5 mm 6 m/S 762 mmHg 89%
23:00 +24°C° 0.5 mm 6 m/S 762 mmHg 91%

28 Januar, Donnerstag

Zeit Temperatur Niederschläge Wind Luftdruck Luftfeuchtigkeit
00:00 +24°C° 0.5 mm 6 m/S 762 mmHg 94%
01:00 +24°C° 0.4 mm 6 m/S 762 mmHg 94%
02:00 +25°C° 0.4 mm 5 m/S 762 mmHg 94%
03:00 +25°C° 0.4 mm 5 m/S 762 mmHg 95%
04:00 +23°C° 0.4 mm 4 m/S 762 mmHg 96%
05:00 +24°C° 0.4 mm 3 m/S 762 mmHg 97%
06:00 +24°C° 0.4 mm 2 m/S 762 mmHg 97%
07:00 +25°C° 0.6 mm 2 m/S 763 mmHg 93%
08:00 +26°C° 0.6 mm 2 m/S 763 mmHg 88%
09:00 +27°C° 0.6 mm 2 m/S 764 mmHg 83%
10:00 +28°C° 0.9 mm 3 m/S 764 mmHg 80%
11:00 +28°C° 0.9 mm 4 m/S 763 mmHg 78%
12:00 +29°C° 0.9 mm 4 m/S 763 mmHg 75%

29 Januar, Freitag

Zeit Temperatur Niederschläge Wind Luftdruck Luftfeuchtigkeit

30 Januar, Samstag

Zeit Temperatur Niederschläge Wind Luftdruck Luftfeuchtigkeit
Mehr zeigen

Wir brauchen deine Erlaubnis

Meteoprog und unser Service Anbieter werden persönliche Daten aufbewahren, so wie Cookies, Geräte Bezeichnung oder ähnliche Technologien von deinem Gerät und Prozess, so wie Persönliche Daten Inhalte und Werbungen, genauso wie social Media und den Verkehr zu analysieren.

  • Aufbewahrung und/oder Zugang zu deiner Geräte Informationen.

    Cookies, Geräte Bezeichnung oder andere Informationen, können aufbewahrt oder Zugang zu deinem Gerät erhalten, für den Grund, der oben angegeben wird.

  • Personalisierte Werbung und Inhalte, Messungen, Einblick in das Publikum und Produkt Entwicklung.

    Werbungen und Inhalte können personalisiert werden, basierend auf ein Profil. Mehr Daten können besser personalisierte Werbungen und Inhalte hinzufügen. Werbung und Inhalte können gezeigt und gemessen werden. Einblicke über das Publikum, welche die Werbung gesehen haben und den Inhalt, können abgeleitet werden. So wie Daten können genutzt werden, um es zu verbessern oder die Benutzer Erfahrung zu verbessern das System und die Software.

Wenn du “Ich stimme zu” klickst, erlaubst du uns, die Cookies zu benutzen die Geräte Bezeichnung, den Web oder ähnliche Technologien zu benutzen. Deine Settings, können in deinem Gerät bei deinem Browser geändert werden.

Für den bestimmten Zweck, berechtigten Interessen beruhen darauf, mehr als auf den Inhalt. Du kannst mehr darüber in unseren Privaten und Cookie Politik lesen.